| time (UTC) | temp C | wind direction | speed KPH | gust KPH | rain 1hr cm | rain 24hr cm | rain mn cm | humidity % | barometer mb |
| 20260507211033 | 5 | 298 | 0.0 | 3.2 | 0.00 | 0.03 | 0.00 | 92 | 1020.3 |
| 20260507210055 | 5 | 222 | 0.0 | 3.2 | 0.00 | 0.03 | 0.00 | 92 | 1020.0 |
| 20260507205120 | 5 | 48 | 0.0 | 3.2 | 0.00 | 0.03 | 0.00 | 92 | 1020.0 |
| 20260507204101 | 5 | 218 | 0.0 | 3.2 | 0.00 | 0.03 | 0.00 | 92 | 1019.9 |
| 20260507203103 | 5 | 0.0 | 3.2 | 0.00 | 0.03 | 0.00 | 92 | 1019.9 | |
| 20260507202024 | 5 | 0.0 | 1.6 | 0.00 | 0.03 | 0.00 | 91 | 1019.9 | |
| 20260507201049 | 5 | 0.0 | 1.6 | 0.00 | 0.03 | 0.00 | 91 | 1019.8 | |
| 20260507200047 | 5 | 0.0 | 3.2 | 0.00 | 0.03 | 0.00 | 91 | 1019.6 | |
| 20260507195112 | 5 | 0.0 | 3.2 | 0.00 | 0.05 | 0.00 | 91 | 1019.6 | |
| 20260507194031 | 5 | 255 | 0.0 | 3.2 | 0.00 | 0.05 | 0.00 | 90 | 1019.2 |
| 20260507193056 | 5 | 314 | 0.0 | 3.2 | 0.00 | 0.05 | 0.00 | 90 | 1019.2 |
| 20260507192107 | 5 | 0.0 | 0.0 | 0.00 | 0.05 | 0.00 | 89 | 1019.2 | |
| 20260507191024 | 5 | 0.0 | 1.6 | 0.00 | 0.05 | 0.00 | 89 | 1019.1 | |
| 20260507190048 | 5 | 0.0 | 3.2 | 0.00 | 0.05 | 0.00 | 88 | 1019.1 | |
| 20260507185112 | 5 | 0.0 | 3.2 | 0.00 | 0.08 | 0.00 | 87 | 1019.0 | |
| 20260507184033 | 6 | 336 | 1.6 | 4.8 | 0.00 | 0.08 | 0.00 | 85 | 1018.9 |
| 20260507183057 | 6 | 318 | 1.6 | 4.8 | 0.00 | 0.08 | 0.00 | 82 | 1018.9 |
| 20260507182142 | 7 | 0.0 | 4.8 | 0.00 | 0.08 | 0.00 | 81 | 1018.7 | |
| 20260507181032 | 6 | 337 | 4.8 | 9.7 | 0.00 | 0.10 | 0.00 | 80 | 1018.7 |
| 20260507180056 | 7 | 333 | 1.6 | 4.8 | 0.00 | 0.10 | 0.00 | 78 | 1018.7 |
| 20260507175140 | 7 | 300 | 0.0 | 6.4 | 0.00 | 0.13 | 0.00 | 77 | 1018.6 |
| 20260507174039 | 7 | 331 | 1.6 | 9.7 | 0.00 | 0.13 | 0.00 | 74 | 1018.5 |
| 20260507173056 | 7 | 1 | 1.6 | 6.4 | 0.00 | 0.15 | 0.00 | 74 | 1018.4 |
| 20260507172119 | 8 | 11 | 1.6 | 6.4 | 0.00 | 0.15 | 0.00 | 72 | 1018.3 |
| 20260507171054 | 8 | 25 | 3.2 | 8.0 | 0.00 | 0.15 | 0.00 | 70 | 1018.3 |
| 20260507170056 | 8 | 341 | 1.6 | 8.0 | 0.00 | 0.15 | 0.00 | 68 | 1018.2 |
| 20260507165120 | 8 | 345 | 3.2 | 9.7 | 0.00 | 0.18 | 0.00 | 68 | 1018.3 |
| 20260507164040 | 9 | 338 | 1.6 | 8.0 | 0.00 | 0.18 | 0.00 | 67 | 1018.1 |
| 20260507163105 | 10 | 338 | 3.2 | 9.7 | 0.00 | 0.18 | 0.00 | 65 | 1018.0 |
| 20260507162026 | 11 | 335 | 1.6 | 11.3 | 0.00 | 0.18 | 0.00 | 61 | 1018.0 |
| 20260507161048 | 12 | 234 | 1.6 | 9.7 | 0.00 | 0.20 | 0.00 | 58 | 1018.1 |
| 20260507160113 | 12 | 74 | 1.6 | 8.0 | 0.00 | 0.20 | 0.00 | 57 | 1018.1 |
| 20260507155024 | 12 | 140 | 3.2 | 8.0 | 0.00 | 0.20 | 0.00 | 58 | 1018.2 |
| 20260507154049 | 11 | 300 | 1.6 | 8.0 | 0.00 | 0.23 | 0.00 | 61 | 1017.9 |
| 20260507153058 | 11 | 3 | 4.8 | 11.3 | 0.00 | 0.23 | 0.00 | 61 | 1017.8 |
| 20260507152113 | 11 | 5 | 1.6 | 8.0 | 0.00 | 0.23 | 0.00 | 65 | 1018.0 |
| 20260507151053 | 10 | 9 | 3.2 | 9.7 | 0.00 | 0.25 | 0.00 | 67 | 1017.9 |
| 20260507150056 | 10 | 20 | 4.8 | 9.7 | 0.00 | 0.25 | 0.00 | 67 | 1017.9 |
| 20260507145140 | 10 | 55 | 4.8 | 12.9 | 0.00 | 0.28 | 0.00 | 67 | 1017.6 |
| 20260507144040 | 10 | 7 | 3.2 | 17.7 | 0.00 | 0.28 | 0.00 | 68 | 1017.7 |
| 20260507143103 | 10 | 124 | 3.2 | 12.9 | 0.00 | 0.28 | 0.00 | 68 | 1017.6 |
| 20260507142023 | 11 | 9 | 3.2 | 12.9 | 0.00 | 0.28 | 0.00 | 67 | 1017.6 |
| 20260507141048 | 10 | 141 | 1.6 | 4.8 | 0.00 | 0.28 | 0.00 | 71 | 1017.6 |
| 20260507140132 | 10 | 357 | 3.2 | 8.0 | 0.00 | 0.28 | 0.00 | 70 | 1017.6 |
| 20260507135033 | 10 | 50 | 3.2 | 8.0 | 0.00 | 0.28 | 0.00 | 68 | 1017.6 |
| 20260507134056 | 10 | 350 | 3.2 | 8.0 | 0.00 | 0.28 | 0.00 | 68 | 1017.7 |
| 20260507133104 | 10 | 314 | 3.2 | 8.0 | 0.00 | 0.28 | 0.00 | 72 | 1017.6 |
| 20260507132024 | 10 | 217 | 1.6 | 6.4 | 0.00 | 0.28 | 0.00 | 71 | 1017.5 |
| 20260507131048 | 10 | 328 | 3.2 | 9.7 | 0.00 | 0.28 | 0.00 | 72 | 1017.4 |
| 20260507130056 | 10 | 20 | 3.2 | 11.3 | 0.00 | 0.28 | 0.00 | 72 | 1017.2 |
| 20260507125141 | 10 | 62 | 4.8 | 11.3 | 0.00 | 0.28 | 0.00 | 74 | 1017.1 |
| 20260507124052 | 8 | 349 | 3.2 | 12.9 | 0.00 | 0.28 | 0.00 | 75 | 1017.2 |
| 20260507123056 | 9 | 22 | 4.8 | 14.5 | 0.00 | 0.28 | 0.00 | 74 | 1016.9 |
| 20260507122117 | 8 | 344 | 6.4 | 17.7 | 0.00 | 0.28 | 0.00 | 75 | 1016.7 |
| 20260507121112 | 9 | 349 | 4.8 | 17.7 | 0.00 | 0.28 | 0.00 | 74 | 1016.7 |
| 20260507120048 | 9 | 342 | 3.2 | 9.7 | 0.00 | 0.28 | 0.00 | 74 | 1016.7 |
| 20260507115100 | 9 | 320 | 3.2 | 12.9 | 0.00 | 0.28 | 0.00 | 74 | 1016.7 |
| 20260507114114 | 9 | 19 | 3.2 | 14.5 | 0.00 | 0.28 | 0.00 | 73 | 1016.5 |
| 20260507113033 | 10 | 308 | 1.6 | 8.0 | 0.00 | 0.28 | 0.00 | 71 | 1016.4 |
| 20260507112116 | 10 | 322 | 3.2 | 9.7 | 0.00 | 0.28 | 0.00 | 71 | 1016.5 |
| 20260507111121 | 10 | 21 | 3.2 | 9.7 | 0.00 | 0.28 | 0.00 | 72 | 1016.4 |
| 20260507110100 | 10 | 229 | 1.6 | 12.9 | 0.00 | 0.28 | 0.00 | 71 | 1016.3 |
| 20260507105103 | 10 | 333 | 3.2 | 9.7 | 0.00 | 0.30 | 0.00 | 71 | 1016.2 |
| 20260507104106 | 10 | 345 | 3.2 | 11.3 | 0.00 | 0.30 | 0.00 | 70 | 1016.2 |
| 20260507103108 | 9 | 358 | 3.2 | 11.3 | 0.00 | 0.30 | 0.00 | 72 | 1016.0 |
| 20260507102132 | 9 | 350 | 4.8 | 14.5 | 0.00 | 0.33 | 0.00 | 72 | 1015.9 |
| 20260507101053 | 9 | 333 | 8.0 | 19.3 | 0.00 | 0.38 | 0.00 | 72 | 1015.8 |
| 20260507100056 | 9 | 298 | 3.2 | 11.3 | 0.00 | 0.41 | 0.00 | 75 | 1015.6 |
| 20260507095113 | 8 | 334 | 4.8 | 11.3 | 0.00 | 0.41 | 0.00 | 76 | 1015.6 |
| 20260507094033 | 8 | 352 | 1.6 | 12.9 | 0.00 | 0.41 | 0.00 | 78 | 1015.7 |
| 20260507093158 | 7 | 339 | 6.4 | 14.5 | 0.00 | 0.41 | 0.00 | 80 | 1015.7 |
| 20260507092115 | 7 | 350 | 8.0 | 14.5 | 0.00 | 0.41 | 0.00 | 82 | 1015.6 |
| 20260507091033 | 7 | 317 | 3.2 | 14.5 | 0.00 | 0.41 | 0.00 | 84 | 1015.4 |
| 20260507090056 | 7 | 300 | 1.6 | 14.5 | 0.00 | 0.41 | 0.00 | 84 | 1015.4 |
| 20260507085122 | 7 | 315 | 3.2 | 11.3 | 0.00 | 0.43 | 0.00 | 86 | 1015.2 |
| 20260507084040 | 7 | 261 | 1.6 | 9.7 | 0.00 | 0.46 | 0.00 | 87 | 1015.0 |
| 20260507083057 | 7 | 311 | 4.8 | 11.3 | 0.00 | 0.46 | 0.00 | 87 | 1015.0 |
| 20260507082121 | 7 | 303 | 4.8 | 11.3 | 0.00 | 0.46 | 0.00 | 87 | 1015.0 |
| 20260507081032 | 7 | 303 | 1.6 | 12.9 | 0.00 | 0.46 | 0.00 | 87 | 1014.8 |
| 20260507080057 | 6 | 319 | 4.8 | 9.7 | 0.00 | 0.46 | 0.00 | 88 | 1014.8 |
| 20260507075120 | 6 | 333 | 4.8 | 17.7 | 0.00 | 0.46 | 0.00 | 87 | 1014.6 |
| 20260507074040 | 6 | 325 | 3.2 | 14.5 | 0.00 | 0.46 | 0.00 | 88 | 1014.6 |
| 20260507073104 | 6 | 315 | 3.2 | 8.0 | 0.00 | 0.48 | 0.00 | 88 | 1014.6 |
| 20260507072045 | 6 | 337 | 3.2 | 12.9 | 0.00 | 0.48 | 0.00 | 89 | 1014.4 |
| 20260507071050 | 6 | 330 | 4.8 | 11.3 | 0.00 | 0.48 | 0.00 | 90 | 1014.5 |
| 20260507070112 | 6 | 310 | 1.6 | 6.4 | 0.00 | 0.48 | 0.00 | 92 | 1014.4 |
| 20260507065032 | 5 | 335 | 3.2 | 9.7 | 0.00 | 0.48 | 0.00 | 93 | 1014.2 |
| 20260507064116 | 5 | 312 | 3.2 | 12.9 | 0.00 | 0.48 | 0.00 | 95 | 1014.2 |
| 20260507063120 | 5 | 336 | 4.8 | 14.5 | 0.00 | 0.48 | 0.00 | 96 | 1014.1 |
| 20260507062040 | 5 | 322 | 4.8 | 9.7 | 0.00 | 0.48 | 0.00 | 96 | 1014.0 |
| 20260507061104 | 5 | 306 | 3.2 | 11.3 | 0.00 | 0.48 | 0.00 | 97 | 1014.1 |
| 20260507060024 | 5 | 306 | 3.2 | 12.9 | 0.00 | 0.48 | 0.00 | 97 | 1014.0 |
| 20260507055129 | 5 | 347 | 4.8 | 9.7 | 0.00 | 0.48 | 0.00 | 97 | 1013.8 |
| 20260507054117 | 5 | 300 | 3.2 | 6.4 | 0.00 | 0.48 | 0.00 | 97 | 1013.6 |
| 20260507053028 | 5 | 327 | 3.2 | 8.0 | 0.00 | 0.48 | 0.00 | 97 | 1013.4 |
| 20260507052041 | 5 | 302 | 3.2 | 8.0 | 0.00 | 0.48 | 0.00 | 97 | 1013.4 |
| 20260507051104 | 5 | 320 | 4.8 | 14.5 | 0.00 | 0.48 | 0.00 | 97 | 1013.3 |
| 20260507050023 | 5 | 335 | 4.8 | 11.3 | 0.00 | 0.48 | 0.00 | 97 | 1013.1 |
| 20260507045108 | 5 | 324 | 4.8 | 12.9 | 0.00 | 0.48 | 0.00 | 97 | 1013.1 |
| 20260507044114 | 5 | 331 | 3.2 | 14.5 | 0.00 | 0.48 | 0.00 | 97 | 1013.0 |
| 20260507043032 | 5 | 324 | 3.2 | 16.1 | 0.00 | 0.48 | 0.00 | 97 | 1012.7 |
| 20260507042056 | 5 | 318 | 3.2 | 9.7 | 0.00 | 0.48 | 0.00 | 97 | 1012.6 |
| 20260507041120 | 5 | 325 | 3.2 | 16.1 | 0.00 | 0.48 | 0.00 | 97 | 1012.6 |
| 20260507040040 | 5 | 326 | 4.8 | 11.3 | 0.00 | 0.48 | 0.00 | 97 | 1012.6 |
| 20260507035105 | 5 | 312 | 1.6 | 8.0 | 0.00 | 0.48 | 0.00 | 97 | 1012.6 |
| 20260507034044 | 5 | 307 | 3.2 | 11.3 | 0.00 | 0.48 | 0.00 | 97 | 1012.5 |
| 20260507033048 | 5 | 309 | 4.8 | 11.3 | 0.00 | 0.48 | 0.00 | 97 | 1012.6 |
| 20260507032134 | 5 | 321 | 4.8 | 8.0 | 0.00 | 0.48 | 0.00 | 97 | 1012.5 |
| 20260507031052 | 5 | 317 | 3.2 | 9.7 | 0.00 | 0.48 | 0.00 | 97 | 1012.5 |
| 20260507030116 | 5 | 352 | 4.8 | 8.0 | 0.00 | 0.48 | 0.00 | 97 | 1012.6 |
| 20260507025119 | 5 | 350 | 4.8 | 8.0 | 0.00 | 0.48 | 0.00 | 97 | 1012.4 |
| 20260507024040 | 5 | 320 | 3.2 | 11.3 | 0.00 | 0.48 | 0.00 | 97 | 1012.3 |
| 20260507023105 | 5 | 353 | 4.8 | 12.9 | 0.00 | 0.48 | 0.00 | 97 | 1012.4 |
| 20260507022044 | 5 | 11 | 3.2 | 9.7 | 0.00 | 0.48 | 0.00 | 97 | 1012.3 |
| 20260507021048 | 5 | 322 | 3.2 | 9.7 | 0.00 | 0.48 | 0.00 | 97 | 1012.4 |
| 20260507020112 | 5 | 334 | 3.2 | 8.0 | 0.00 | 0.48 | 0.00 | 97 | 1012.3 |
| 20260507015033 | 5 | 358 | 3.2 | 12.9 | 0.00 | 0.48 | 0.00 | 97 | 1012.2 |
| 20260507014056 | 5 | 355 | 3.2 | 14.5 | 0.00 | 0.48 | 0.00 | 97 | 1012.4 |
| 20260507013120 | 5 | 349 | 3.2 | 11.3 | 0.00 | 0.48 | 0.00 | 97 | 1012.2 |
| 20260507012041 | 5 | 353 | 3.2 | 6.4 | 0.00 | 0.48 | 0.00 | 97 | 1012.2 |
| 20260507011104 | 5 | 2 | 1.6 | 6.4 | 0.00 | 0.48 | 0.00 | 97 | 1012.0 |
| 20260507010024 | 5 | 250 | 1.6 | 4.8 | 0.00 | 0.48 | 0.00 | 97 | 1011.9 |
| 20260507005047 | 5 | 346 | 4.8 | 12.9 | 0.00 | 0.48 | 0.00 | 97 | 1011.7 |
| 20260507004154 | 5 | 333 | 3.2 | 9.7 | 0.00 | 0.48 | 0.00 | 97 | 1011.7 |
| 20260507003032 | 5 | 318 | 1.6 | 6.4 | 0.00 | 0.48 | 0.00 | 97 | 1011.8 |
| 20260507002056 | 5 | 317 | 3.2 | 8.0 | 0.00 | 0.48 | 0.00 | 97 | 1011.7 |
| 20260507001120 | 5 | 330 | 4.8 | 9.7 | 0.00 | 0.48 | 0.00 | 97 | 1011.6 |
| 20260507000040 | 5 | 308 | 3.2 | 6.4 | 0.00 | 0.48 | 0.00 | 97 | 1011.4 |
| 20260506235104 | 5 | 297 | 1.6 | 12.9 | 0.00 | 0.48 | 0.48 | 97 | 1011.3 |
| 20260506234024 | 5 | 327 | 1.6 | 9.7 | 0.00 | 0.48 | 0.48 | 97 | 1011.5 |
| 20260506233049 | 5 | 339 | 6.4 | 16.1 | 0.00 | 0.48 | 0.48 | 97 | 1011.7 |
| 20260506232112 | 5 | 308 | 3.2 | 9.7 | 0.00 | 0.48 | 0.48 | 97 | 1011.6 |
| 20260506231032 | 5 | 325 | 3.2 | 14.5 | 0.00 | 0.48 | 0.48 | 97 | 1011.8 |
| 20260506230056 | 5 | 338 | 4.8 | 14.5 | 0.00 | 0.48 | 0.48 | 97 | 1011.7 |
| 20260506225120 | 5 | 78 | 3.2 | 8.0 | 0.00 | 0.48 | 0.48 | 97 | 1011.7 |
| 20260506224040 | 5 | 9 | 3.2 | 11.3 | 0.03 | 0.48 | 0.48 | 97 | 1011.9 |
| 20260506223104 | 5 | 344 | 3.2 | 16.1 | 0.03 | 0.48 | 0.48 | 97 | 1011.7 |
| 20260506222104 | 5 | 16 | 4.8 | 14.5 | 0.03 | 0.48 | 0.48 | 97 | 1011.6 |
| 20260506221049 | 5 | 316 | 3.2 | 12.9 | 0.00 | 0.46 | 0.46 | 97 | 1011.4 |
| 20260506220112 | 5 | 9 | 3.2 | 9.7 | 0.00 | 0.46 | 0.46 | 97 | 1011.3 |
| 20260506215033 | 5 | 340 | 1.6 | 9.7 | 0.00 | 0.46 | 0.46 | 97 | 1011.2 |
| 20260506214057 | 5 | 346 | 3.2 | 9.7 | 0.00 | 0.46 | 0.46 | 97 | 1011.2 |
| 20260506213120 | 5 | 356 | 3.2 | 8.0 | 0.00 | 0.46 | 0.46 | 97 | 1011.3 |
| 20260506212040 | 5 | 339 | 4.8 | 12.9 | 0.00 | 0.46 | 0.46 | 96 | 1011.3 |